Погода Комсомольск-на-Амуре

Погода Комсомольск-на-Амуре : погода сейчас, прогноз погоды и архив. Всё, что Вы хотите узнать о погоде Комсомольск-на-Амуре!

Хотите узнать прогноз погоды Комсомольск-на-Амуре? Тогда Вам сюда: Погода Комсомольск-на-Амуре

Поиск расширенной информации на нашем сайте:

Другие новости

Новости СМИ2

Главная страница сайта

Новости сайта

03.07.2017

Напоминаем, что на нашем специализированном сайте Метеоцентр.Азия вы можете получить высокодетализированные автоматические прогнозы погоды по пунктам России, СНГ и мира в авиационном формате (включающие направление и скорость ветра, видимость, явления погоды, количество и форму облачности, нижнюю и верхнюю границу облачности).


Погода Комсомольск-на-Амуре - сегодня

Время (UTC), дата Ветер
(°,м/с) 
Видим.   Явления Облачность Т
(°С)
Тd
(°С)
f(%) Тe
(°С)
Pmin
(гПа)
dP
(гПа)
Po
(мм)
O2
(г/м3)
Тmin Tmax R s Состояние
почвы
00 20.02.18 тихо ()   10 км    8/0 верхняя 
[Ci fib]
-22.9 -26.2 74 -23  1010.9  0.5  756  334  -28.7         
03 20.02.18 160 (Ю) 20000 м    3/0 верхняя 
[Ci fib]
-17.2 -22.5 63 -20  1010.4  -0.4  756  327           
06 20.02.18 160 (Ю) 20000 м    ясно 
-15.1 -22 56 -17  1010.1  -0.2  756  324           
12 20.02.18 240 (ЮЗ) 20000 м    6/0 верхняя 
[Ci fib]
-20.9 -24.4 73 -21  1012  0.6  757  332           
15 20.02.18 тихо ()   20000 м    8/0 верхняя 
[Cs]
-24.3 -26.9 79 -24  1012.1  757  337           
18 20.02.18 тихо ()   20000 м    6/0 верхняя 
[Ci fib]
-26.2 -29.2 76 -26  1012.3  0.2  757  339           
03 21.02.18 170 (Ю) 20000 м  {снег}  8/0 верхняя 
[Cs]
-17.6 -25.1 52 -23  1013  -0.2  758  328           
06 21.02.18 190 (Ю) 20000 м  {снег}  5/0 верхняя 
[Cs]
-15.8 -24.3 48 -20  1012.5  -0.5  757  326           
12 21.02.18 тихо ()   20000 м    ясно 
-25.4 -28.3 77 -25  1014.4  0.8  759  339           
15 21.02.18 020 (С) 20000 м    ясно 
-23.8 -26.8 76 -24  1014.4  0.1  759  337           
18 21.02.18 тихо ()   20000 м    ясно 
-30.4 -33.9 71 -30  1014.9  0.4  759  346           
00 22.02.18 030 (СВ) 20000 м    3/0 верхняя 
[Ci fib]
-24.9 -28.2 74 -28  1016.3  0.9  760  339  -33         
03 22.02.18 230 (ЮЗ) 20000 м    3/0 верхняя 
[Ci fib]
-16.2 -23.8 52 -16  1015.6  -0.6  760  327           
06 22.02.18 170 (Ю) 20000 м    6/0 верхняя 
[Ci]
-14.1 -21.8 52 -14  1014.6  -0.9  759  324           
09 22.02.18 тихо ()   20000 м    4/0 верхняя 
[Ci fib]
-16.9 -22.8 60 -17  1016  1.3  760  328    -12.3       
12 22.02.18 150 (ЮВ) 20000 м    6/0 верхняя 
[Ci fib]
-20.7 -23.8 76 -21  1017.3  1.3  761  333           
15 22.02.18 020 (С) 20000 м    6/0 верхняя 
[Ci fib]
-22.7 -25.3 79 -23  1018.2  0.8  762  336           
18 22.02.18 020 (С) 20000 м    3/0 верхняя 
[Ci fib]
-20.9 -25.4 67 -21  1018.8  0.7  762  334           
00 23.02.18 030 (СВ) 20000 м    9/3 600 м средняя, верхняя 
[Sc|Ac lent|Cc]
-19.3 -25.4 58 -20  1021.7  1.6  764  333           
03 23.02.18 010 (С) 20000 м    10/0 верхняя 
[Cs]
-13.3 -23.6 42 -17  1021.4  -0.2  764  325           
06 23.02.18 010 (С) 20000 м    3/0 верхняя 
[Ci fib]
-11.4 -24.5 33 -15  1021.1  -0.3  764  323           
09 23.02.18 360 (С) 20000 м    ясно 
-13.9 -25.2 38 -16  1022.1  765  326    -11.2       
12 23.02.18 360 (С) 20000 м    ясно 
-16.8 -25.1 49 -17  1023.5  1.4  766  330           
15 23.02.18 020 (С) 20000 м    ясно 
-17.5 -26.7 45 -21  1023.7  0.2  766  331           
18 23.02.18 030 (СВ) 20000 м    ясно 
-20.6 -26.6 59 -23  1023.9  0.1  766  336           
Время (UTC), дата Ветер
(°,м/с) 
Видим.   Явления Облачность Т
(°С)
Тd
(°С)
f(%) Тe
(°С)
Pmin
(гПа)
dP
(гПа)
Po
(мм)
O2
(г/м3)
Тmin Tmax R s Состояние
почвы

Для получения пояснительной информации подведите курсор к названию столбца.

ПОГОДА Комсомольск-на-Амуре - архив

Всё, что Вы хотите узнать о погоде Комсомольск-на-Амуре - удобно и подробно!

Выберите нужную дату (начиная с 1 января 2015* года) и нажмите кнопку "Найти".
Будут отображены архивные сводки погоды по пункту Комсомольск-на-Амуре, начиная с указанной даты.


Отображать данные в формате CSV (для использования в таблицах Excel)


Внимание! Наш архив погоды предназначен исключительно для личного некоммерческого использования в познавательных целях. Если Вам необходимы официальные справки о состоянии погоды (для производственных, юридических, коммерческих и т.п. целей), обращайтесь в органы Росгидромета.

*Примечание: данная дата относится к архиву по метеостанциям СССР (Россия, СНГ, Балтия).
Архив по метеостанциям Зарубежной Европы и Азии (кроме Китая) хранится 10 дней, по другим регионам земного шара (Китай, Африка, Америка, Австралия, Океания) - 1 день.

Комсомольск-на-Амуре - район местоположения метеостанции


Название, широта, долгота, высота метеостанции:
Комсомольск-на-Амуре 50.6°ш. 137°д. 19 м над ур. моря [Российская Федерация]

Дополнительная информация

В oтличие oт бoльшинства пoгoдных сайтoв мы публикуем пoдрoбную метеoинфoрмацию в детальнoм прoфессиoнальнoм фoрмате.

Характеристики температуры и влажнoсти вoздуха измеряются на высoте 2 м в тени вдали oт зданий и деревьев.
Скoрoсть ветра измеряется на высoте 10 м (на урoвне рoста челoвека скoрoсть ветра ниже в 1.5-2 раза). Если метеoстанция нахoдится в гoрoде или в лесу, тo скoрoсть ветра занижена на 2-4 м/с пo сравнению с oткрытым местoм. Скoрoсть ветра над акватoриями крупных рек и oзёр, а также на вершинах хoлмoв на 2-5 м/с выше, чем в oбычных услoвиях.
Атмoсфернoе давление в разных тoчках местнoсти мoжет значительнo oтличаться oт давления на метеoстанции, в зависимoсти oт услoвий рельефа (при пoдъёме на 10 м давление пoнижается примернo на 1 мм рт.ст.).